Location: Newark
(53.2933°N, 6.3959°W)
Time: 01:52:03
(UTC+00:00)

Envisat - Pass Details

Date: 26 February 2020
Orbit: 764 x 766 km, 98.1° (Epoch: 08 April)

Event Time Altitude Azimuth Distance (km) Brightness Sun altitude
Rises 06:20:52 0° 20° (NNE) 3,248 6.5 -9.8°
Reaches altitude 10° 06:23:26 10° 31° (NNE) 2,316 5.9 -9.4°
Maximum altitude 06:27:59 32° 94° (E) 1,303 5.1 -8.7°
Drops below altitude 10° 06:32:30 10° 157° (SSE) 2,300 5.9 -8.0°
Sets 06:35:02 0° 167° (SSE) 3,220 6.5 -7.7°
